^^
Station Historical Data
Daily Summary for January 23, 2018 Units:  English    Metric   Both
« Previous Day
Next Day »
Daily Weekly Monthly Yearly Custom
  High: Low: Average:
Temperature: TemperatureC °F -11.7 °F -8.3 °F
Dew Point: DewpointC °F -13.1 °F -9.6 °F
Humidity: Humidity% 87% 90%
Wind Speed: WindSpeedKMHmph 0.0mph 0.1mph
Wind Gust: WindSpeedGustKMHmph - -
Wind- - ESE
Pressure: PressurehPa in 1014.8 in -
Precipitation: 0.8 in    
Historical Graphs
 
 
Tabular Data for January 23, 2018
Time Temperature Dew Point Pressure Wind Wind Speed Wind Gust Humidity Rainfall Rate (Hourly) solar Conditions
TemperatureC °F DewpointC °F PressurehPa in Calm     Humidity% HourlyPrecipMM in SoftwareType W/m2 Conditions
00:00 -10.1 °F -11.2 °F 1014.8 in Calm     91% 0.0 in WeatherDisplay:10.37 W/m2 RA
00:05 -10.1 °F -11.2 °F 1015.1 in Calm     91% 0.0 in WeatherDisplay:10.37 W/m2 RA
00:10 -10.0 °F -11.2 °F 1015.1 in Calm     91% 0.0 in WeatherDisplay:10.37 W/m2 FEW
00:15 -9.9 °F -11.1 °F 1014.8 in Calm     91% 0.0 in WeatherDisplay:10.37 W/m2 FEW
00:20 -9.9 °F -11.1 °F 1014.8 in Calm     91% 0.0 in WeatherDisplay:10.37 W/m2 FEW
00:25 -9.9 °F -11.1 °F 1015.1 in Calm     91% 0.0 in WeatherDisplay:10.37 W/m2 FEW
00:30 -9.8 °F -11.0 °F 1015.1 in Calm     91% 0.0 in WeatherDisplay:10.37 W/m2 FEW
00:35 -9.8 °F -10.9 °F 1015.1 in Calm     91% 0.0 in WeatherDisplay:10.37 W/m2 FEW
00:40 -9.8 °F -10.9 °F 1015.1 in Calm     91% 0.0 in WeatherDisplay:10.37 W/m2 FEW
00:45 -9.7 °F -10.9 °F 1015.1 in Calm     91% 0.0 in WeatherDisplay:10.37 W/m2 FEW
00:50 -9.8 °F -10.9 °F 1015.1 in Calm     91% 0.0 in WeatherDisplay:10.37 W/m2 FEW
00:55 -9.8 °F -10.9 °F 1015.1 in Calm     91% 0.0 in WeatherDisplay:10.37 W/m2 FEW
01:00 -9.8 °F -11.0 °F 1015.5 in Calm     91% 0.0 in WeatherDisplay:10.37 W/m2 FEW
01:05 -9.8 °F -11.0 °F 1015.5 in Calm     91% 0.0 in WeatherDisplay:10.37 W/m2 FEW
01:10 -9.9 °F -11.1 °F 1015.5 in Calm     91% 0.0 in WeatherDisplay:10.37 W/m2 FEW
01:15 -10.0 °F -11.2 °F 1015.5 in Calm     91% 0.0 in WeatherDisplay:10.37 W/m2 FEW
01:20 -10.1 °F -11.4 °F 1015.5 in Calm     90% 0.0 in WeatherDisplay:10.37 W/m2 FEW
01:25 -10.2 °F -10.3 °F 1015.5 in Calm     99% 0.0 in WeatherDisplay:10.37 W/m2 FEW
01:30 -10.3 °F -11.7 °F 1015.5 in Calm     90% 0.0 in WeatherDisplay:10.37 W/m2 FEW
01:35 -10.4 °F -11.8 °F 1015.5 in Calm     90% 0.0 in WeatherDisplay:10.37 W/m2 FEW
01:40 -10.6 °F -11.9 °F 1015.5 in Calm     90% 0.0 in WeatherDisplay:10.37 W/m2 FEW
01:45 -10.6 °F -11.9 °F 1015.8 in Calm     90% 0.0 in WeatherDisplay:10.37 W/m2 FEW
01:50 -10.6 °F -11.9 °F 1015.8 in Calm     90% 0.0 in WeatherDisplay:10.37 W/m2 FEW
01:55 -10.6 °F -11.8 °F 1015.8 in Calm     91% 0.0 in WeatherDisplay:10.37 W/m2 FEW
02:00 -10.6 °F -11.8 °F 1015.8 in Calm     91% 0.0 in WeatherDisplay:10.37 W/m2 FEW
02:05 -10.6 °F -11.7 °F 1015.8 in Calm     91% 0.0 in WeatherDisplay:10.37 W/m2 FEW
02:10 -10.5 °F -11.7 °F 1015.8 in Calm     91% 0.0 in WeatherDisplay:10.37 W/m2 FEW
02:15 -10.4 °F -11.6 °F 1016.1 in Calm     91% 0.0 in WeatherDisplay:10.37 W/m2 FEW
02:20 -10.3 °F -11.5 °F 1016.1 in Calm     91% 0.0 in WeatherDisplay:10.37 W/m2 FEW
02:25 -10.2 °F -11.4 °F 1016.1 in Calm     91% 0.0 in WeatherDisplay:10.37 W/m2 FEW
02:30 -10.2 °F -11.3 °F 1016.1 in Calm     91% 0.0 in WeatherDisplay:10.37 W/m2 FEW
02:35 -10.1 °F -11.2 °F 1016.1 in Calm     91% 0.0 in WeatherDisplay:10.37 W/m2 FEW
02:40 -9.9 °F -11.0 °F 1016.1 in Calm     92% 0.0 in WeatherDisplay:10.37 W/m2 FEW
02:45 -9.9 °F -10.9 °F 1016.5 in Calm     92% 0.0 in WeatherDisplay:10.37 W/m2 FEW
02:50 -9.8 °F -10.9 °F 1016.5 in Calm     92% 0.0 in WeatherDisplay:10.37 W/m2 FEW
02:55 -9.8 °F -10.8 °F 1016.5 in Calm     92% 0.0 in WeatherDisplay:10.37 W/m2 FEW
03:00 -9.7 °F -10.8 °F 1016.5 in Calm     92% 0.0 in WeatherDisplay:10.37 W/m2 FEW
03:05 -9.7 °F -10.8 °F 1016.5 in Calm     92% 0.0 in WeatherDisplay:10.37 W/m2 FEW
03:10 -9.7 °F -10.7 °F 1016.5 in Calm     92% 0.0 in WeatherDisplay:10.37 W/m2 FEW
03:15 -9.6 °F -10.7 °F 1016.5 in Calm     92% 0.0 in WeatherDisplay:10.37 W/m2 FEW
03:20 -9.6 °F -10.6 °F 1016.5 in Calm     92% 0.0 in WeatherDisplay:10.37 W/m2 FEW
03:30 -9.4 °F -10.5 °F 1016.5 in Calm     92% 0.0 in WeatherDisplay:10.37 W/m2 FEW
03:40 -9.4 °F -10.4 °F 1016.8 in Calm     92% 0.0 in WeatherDisplay:10.37 W/m2 FEW
03:45 -9.3 °F -10.4 °F 1016.8 in Calm     92% 0.0 in WeatherDisplay:10.37 W/m2 FEW
03:50 -9.3 °F -10.4 °F 1016.8 in Calm     92% 0.0 in WeatherDisplay:10.37 W/m2 FEW
03:55 -9.3 °F -10.3 °F 1016.8 in Calm     92% 0.0 in WeatherDisplay:10.37 W/m2 FEW
04:05 -9.2 °F -10.2 °F 1016.8 in Calm     92% 0.0 in WeatherDisplay:10.37 W/m2 FEW
04:15 -9.1 °F -10.2 °F 1017.2 in Calm     92% 0.0 in WeatherDisplay:10.37 W/m2 FEW
04:20 -9.1 °F -10.2 °F 1017.2 in Calm     92% 0.0 in WeatherDisplay:10.37 W/m2 FEW
04:25 -9.1 °F -10.1 °F 1017.2 in Calm     92% 0.0 in WeatherDisplay:10.37 W/m2 FEW
04:30 -9.0 °F -10.1 °F 1017.2 in Calm     92% 0.0 in WeatherDisplay:10.37 W/m2 FEW
04:35 -9.0 °F -10.1 °F 1017.2 in Calm     92% 0.0 in WeatherDisplay:10.37 W/m2 FEW
04:45 -8.9 °F -10.0 °F 1017.2 in Calm     92% 0.0 in WeatherDisplay:10.37 W/m2 FEW
04:50 -9.0 °F -10.1 °F 1017.2 in NNE 0.2 mph 1.6 mph 92% 0.0 in WeatherDisplay:10.37 W/m2 FEW
04:55 -9.1 °F -10.3 °F 1017.5 in Calm     91% 0.0 in WeatherDisplay:10.37 W/m2 FEW
05:00 -9.1 °F -10.3 °F 1017.5 in Calm   1.9 mph 91% 0.0 in WeatherDisplay:10.37 W/m2 FEW
05:05 -9.2 °F -10.4 °F 1017.5 in Calm     91% 0.0 in WeatherDisplay:10.37 W/m2 FEW
05:10 -9.2 °F -10.4 °F 1017.5 in Calm     91% 0.0 in WeatherDisplay:10.37 W/m2 FEW
05:20 -9.3 °F -10.5 °F 1017.8 in Calm     91% 0.0 in WeatherDisplay:10.37 W/m2 FEW
05:25 -9.3 °F -10.6 °F 1017.8 in Calm     91% 0.0 in WeatherDisplay:10.37 W/m2 FEW
05:30 -9.3 °F -10.6 °F 1017.8 in Calm     91% 0.0 in WeatherDisplay:10.37 W/m2 FEW
05:40 -9.4 °F -10.6 °F 1017.8 in Calm     91% 0.0 in WeatherDisplay:10.37 W/m2 FEW
05:45 -9.4 °F -10.6 °F 1017.8 in Calm     91% 0.0 in WeatherDisplay:10.37 W/m2 FEW
05:50 -9.4 °F -10.7 °F 1017.8 in Calm     91% 0.0 in WeatherDisplay:10.37 W/m2 FEW
06:00 -9.5 °F -10.7 °F 1017.8 in Calm     91% 0.0 in WeatherDisplay:10.37 W/m2 FEW
06:10 -9.7 °F -10.8 °F 1018.2 in Calm     91% 0.0 in WeatherDisplay:10.37 W/m2 FEW
06:15 -9.8 °F -11.1 °F 1018.2 in Calm     90% 0.0 in WeatherDisplay:10.37 W/m2 FEW
06:20 -9.9 °F -11.2 °F 1018.2 in Calm     90% 0.0 in WeatherDisplay:10.37 W/m2 FEW
06:30 -10.3 °F -11.6 °F 1018.2 in Calm     90% 0.0 in WeatherDisplay:10.37 W/m2 FEW
06:35 -10.4 °F -11.8 °F 1018.2 in Calm     90% 0.0 in WeatherDisplay:10.37 W/m2 FEW
06:40 -10.6 °F -11.9 °F 1018.2 in Calm     90% 0.0 in WeatherDisplay:10.37 W/m2 FEW
06:45 -10.7 °F -12.1 °F 1018.2 in Calm     90% 0.0 in WeatherDisplay:10.37 W/m2 FEW
06:55 -10.8 °F -12.1 °F 1018.5 in NNE 2.1 mph 4.8 mph 90% 0.0 in WeatherDisplay:10.37 W/m2 FEW
07:00 -10.8 °F -12.1 °F 1018.5 in NNE 1.3 mph 5.6 mph 90% 0.0 in WeatherDisplay:10.37 W/m2 FEW
07:05 -10.8 °F -12.2 °F 1018.5 in Calm     90% 0.0 in WeatherDisplay:10.37 W/m2 FEW
07:10 -10.9 °F -12.3 °F 1018.5 in Calm     90% 0.0 in WeatherDisplay:10.37 W/m2 FEW
07:15 -11.1 °F -12.4 °F 1018.5 in Calm     90% 0.0 in WeatherDisplay:10.37 W/m2 FEW
07:25 -11.3 °F -12.8 °F 1018.5 in Calm     89% 0.0 in WeatherDisplay:10.37 W/m2 FEW
07:35 -11.6 °F -12.9 °F 1018.5 in Calm     90% 0.0 in WeatherDisplay:10.37 W/m2 FEW
07:45 -11.7 °F -13.0 °F 1018.5 in Calm     90% 0.0 in WeatherDisplay:10.37 W/m2 FEW
07:50 -11.7 °F -13.1 °F 1018.5 in Calm     90% 0.0 in WeatherDisplay:10.37 W/m2 FEW
07:55 -11.7 °F -13.0 °F 1018.5 in Calm     90% 0.0 in WeatherDisplay:10.37 W/m2 FEW
07:57 -11.7 °F -13.0 °F 1018.5 in Calm     90% 0.0 in WeatherDisplay:10.37 W/m2 FEW
08:02 -11.7 °F -13.0 °F 1018.5 in NNE 0.5 mph 3.2 mph 90% 0.0 in WeatherDisplay:10.37 W/m2 FEW
08:07 -11.6 °F -12.9 °F 1018.5 in NNE 0.5 mph 3.2 mph 90% 0.0 in WeatherDisplay:10.37 W/m2 FEW
08:17 -11.6 °F -12.9 °F 1018.8 in Calm     90% 0.0 in WeatherDisplay:10.37 W/m2 FEW
08:22 -11.6 °F -12.9 °F 1019.2 in Calm     90% 0.0 in WeatherDisplay:10.37 W/m2 FEW
08:27 -11.6 °F -12.9 °F 1019.2 in Calm     90% 0.0 in WeatherDisplay:10.37 W/m2 FEW
08:32 -11.6 °F -12.9 °F 1019.2 in Calm     90% 0.0 in WeatherDisplay:10.37 W/m2 FEW
08:37 -11.6 °F -12.9 °F 1019.2 in Calm     90% 0.0 in WeatherDisplay:10.37 W/m2 FEW
08:42 -11.6 °F -12.9 °F 1019.2 in Calm     90% 0.0 in WeatherDisplay:10.37 W/m2 FEW
08:52 -11.4 °F -12.8 °F 1019.2 in Calm     90% 0.0 in WeatherDisplay:10.37 W/m2 FEW
08:57 -11.4 °F -12.8 °F 1019.2 in Calm     90% 0.0 in WeatherDisplay:10.37 W/m2 FEW
09:02 -11.4 °F -12.7 °F 1019.2 in Calm     90% 0.0 in WeatherDisplay:10.37 W/m2 FEW
09:07 -11.3 °F -12.7 °F 1019.2 in Calm     90% 0.0 in WeatherDisplay:10.37 W/m2 FEW
09:22 -11.3 °F -12.6 °F 1019.5 in Calm     90% 0.0 in WeatherDisplay:10.37 W/m2 FEW
09:32 -11.2 °F -12.5 °F 1019.5 in Calm     90% 0.0 in WeatherDisplay:10.37 W/m2 FEW
09:37 -11.2 °F -12.5 °F 1019.5 in Calm     90% 0.0 in WeatherDisplay:10.37 W/m2 FEW
09:42 -11.1 °F -12.4 °F 1019.5 in Calm     90% 0.0 in WeatherDisplay:10.37 W/m2 FEW
09:47 -11.1 °F -12.4 °F 1019.9 in Calm     90% 0.0 in WeatherDisplay:10.37 W/m2 FEW
09:52 -11.0 °F -12.3 °F 1019.9 in Calm     90% 0.0 in WeatherDisplay:10.37 W/m2 FEW
09:57 -10.9 °F -12.3 °F 1019.9 in Calm     90% 0.0 in WeatherDisplay:10.37 W/m2 FEW
10:02 -10.9 °F -12.2 °F 1019.9 in Calm     90% 0.0 in WeatherDisplay:10.37 W/m2 FEW
10:07 -10.9 °F -12.3 °F 1019.9 in Calm     89% 0.0 in WeatherDisplay:10.37 W/m2 FEW
10:12 -10.8 °F -12.3 °F 1019.9 in Calm     89% 0.0 in WeatherDisplay:10.37 W/m2 FEW
10:17 -10.8 °F -12.2 °F 1019.9 in Calm     89% 0.0 in WeatherDisplay:10.37 W/m2 FEW
10:27 -10.7 °F -12.2 °F 1019.9 in Calm     89% 0.0 in WeatherDisplay:10.37 W/m2 FEW
10:32 -10.7 °F -12.1 °F 1019.9 in Calm     89% 0.0 in WeatherDisplay:10.37 W/m2 FEW
10:37 -10.7 °F -12.1 °F 1020.2 in Calm     89% 0.0 in WeatherDisplay:10.37 W/m2 FEW
10:52 -10.4 °F -11.9 °F 1020.2 in Calm     89% 0.0 in WeatherDisplay:10.37 W/m2 FEW
10:57 -10.3 °F -11.8 °F 1020.2 in Calm     89% 0.0 in WeatherDisplay:10.37 W/m2 FEW
11:02 -10.3 °F -11.9 °F 1020.2 in Calm     88% 0.0 in WeatherDisplay:10.37 W/m2 FEW
11:07 -10.3 °F -11.9 °F 1020.2 in Calm     88% 0.0 in WeatherDisplay:10.37 W/m2 FEW
11:13 -10.2 °F -11.8 °F 1020.2 in Calm     88% 0.0 in WeatherDisplay:10.37 W/m2 FEW
11:18 -10.1 °F -11.7 °F 1020.5 in Calm     88% 0.0 in WeatherDisplay:10.37 W/m2 FEW
11:23 -9.9 °F -11.4 °F 1020.5 in Calm     89% 0.0 in WeatherDisplay:10.37 W/m2 FEW
11:28 -9.9 °F -11.3 °F 1020.5 in Calm     89% 0.0 in WeatherDisplay:10.37 W/m2 FEW
11:38 -9.7 °F -11.3 °F 1020.5 in Calm     88% 0.0 in WeatherDisplay:10.37 W/m2 FEW
11:43 -9.7 °F -11.3 °F 1020.5 in Calm     88% 0.0 in WeatherDisplay:10.37 W/m2 FEW
11:53 -9.7 °F -11.3 °F 1020.9 in Calm     88% 0.0 in WeatherDisplay:10.37 W/m2 FEW
11:58 -9.7 °F -11.3 °F 1020.9 in Calm     88% 0.0 in WeatherDisplay:10.37 W/m2 FEW
12:03 -9.6 °F -11.2 °F 1020.9 in Calm     88% 0.0 in WeatherDisplay:10.37 W/m2 FEW
12:08 -9.6 °F -11.2 °F 1020.9 in Calm     88% 0.0 in WeatherDisplay:10.37 W/m2 FEW
12:23 -9.3 °F -10.9 °F 1020.9 in Calm     88% 0.0 in WeatherDisplay:10.37 W/m2 FEW
12:28 -9.3 °F -10.9 °F 1020.9 in Calm     88% 0.0 in WeatherDisplay:10.37 W/m2 FEW
12:33 -9.2 °F -10.8 °F 1020.9 in Calm     88% 0.0 in WeatherDisplay:10.37 W/m2 FEW
12:38 -9.2 °F -10.8 °F 1020.9 in Calm     88% 0.0 in WeatherDisplay:10.37 W/m2 FEW
12:43 -9.1 °F -10.7 °F 1020.9 in Calm     88% 0.0 in WeatherDisplay:10.37 W/m2 FEW
12:48 -9.1 °F -10.7 °F 1020.9 in Calm     88% 0.0 in WeatherDisplay:10.37 W/m2 FEW
12:53 -9.0 °F -10.6 °F 1020.9 in Calm     88% 0.0 in WeatherDisplay:10.37 W/m2 FEW
12:58 -8.9 °F -10.7 °F 1020.9 in Calm     87% 0.0 in WeatherDisplay:10.37 W/m2 FEW
13:03 -8.8 °F -10.4 °F 1020.9 in Calm     88% 0.0 in WeatherDisplay:10.37 W/m2 FEW
13:08 -8.8 °F -10.4 °F 1020.9 in Calm     88% 0.0 in WeatherDisplay:10.37 W/m2 FEW
13:18 -8.7 °F -10.3 °F 1020.9 in Calm     88% 0.0 in WeatherDisplay:10.37 W/m2 FEW
13:23 -8.7 °F -10.3 °F 1020.9 in Calm     88% 0.0 in WeatherDisplay:10.37 W/m2 FEW
13:28 -8.7 °F -10.4 °F 1020.9 in Calm     87% 0.0 in WeatherDisplay:10.37 W/m2 FEW
13:38 -8.6 °F -10.2 °F 1020.5 in Calm     88% 0.0 in WeatherDisplay:10.37 W/m2 FEW
13:43 -8.6 °F -10.2 °F 1020.9 in Calm     88% 0.0 in WeatherDisplay:10.37 W/m2 FEW
13:48 -8.5 °F -10.1 °F 1020.5 in Calm     88% 0.0 in WeatherDisplay:10.37 W/m2 FEW
13:53 -8.5 °F -10.1 °F 1020.5 in Calm     88% 0.0 in WeatherDisplay:10.37 W/m2 FEW
13:58 -8.4 °F -10.1 °F 1020.5 in Calm     88% 0.0 in WeatherDisplay:10.37 W/m2 FEW
14:03 -8.4 °F -10.1 °F 1020.5 in Calm     88% 0.0 in WeatherDisplay:10.37 W/m2 FEW
14:08 -8.4 °F -10.1 °F 1020.9 in Calm     88% 0.0 in WeatherDisplay:10.37 W/m2 FEW
14:13 -8.4 °F -9.9 °F 1020.5 in Calm     89% 0.0 in WeatherDisplay:10.37 W/m2 FEW
14:28 -8.3 °F -9.8 °F 1020.9 in Calm     89% 0.0 in WeatherDisplay:10.37 W/m2 FEW
14:33 -8.2 °F -9.7 °F 1020.5 in Calm     89% 0.0 in WeatherDisplay:10.37 W/m2 FEW
14:38 -8.2 °F -9.7 °F 1020.9 in Calm     89% 0.0 in WeatherDisplay:10.37 W/m2 FEW
14:43 -8.2 °F -9.7 °F 1020.5 in Calm     89% 0.0 in WeatherDisplay:10.37 W/m2 FEW
14:53 -8.2 °F -9.7 °F 1020.5 in Calm     89% 0.0 in WeatherDisplay:10.37 W/m2 FEW
14:58 -8.1 °F -9.6 °F 1020.5 in Calm     89% 0.0 in WeatherDisplay:10.37 W/m2 FEW
15:08 -8.1 °F -9.6 °F 1020.5 in Calm     89% 0.0 in WeatherDisplay:10.37 W/m2 FEW
15:13 -8.0 °F -9.5 °F 1020.5 in Calm     89% 0.0 in WeatherDisplay:10.37 W/m2 FEW
15:18 -7.9 °F -9.4 °F 1020.5 in Calm     89% 0.0 in WeatherDisplay:10.37 W/m2 FEW
15:23 -7.9 °F -9.4 °F 1020.5 in Calm     89% 0.0 in WeatherDisplay:10.37 W/m2 FEW
15:28 -7.9 °F -9.4 °F 1020.5 in Calm     89% 0.0 in WeatherDisplay:10.37 W/m2 FEW
15:33 -7.8 °F -9.2 °F 1020.5 in Calm     90% 0.0 in WeatherDisplay:10.37 W/m2 FEW
15:43 -7.8 °F -9.1 °F 1020.5 in Calm     90% 0.0 in WeatherDisplay:10.37 W/m2 FEW
15:53 -7.7 °F -9.0 °F 1020.5 in Calm     90% 0.0 in WeatherDisplay:10.37 W/m2 FEW
15:56 -7.7 °F -9.0 °F 1020.5 in Calm     90% 0.0 in WeatherDisplay:10.37 W/m2 FEW
16:01 -7.6 °F -8.9 °F 1020.5 in Calm     90% 0.0 in WeatherDisplay:10.37 W/m2 FEW
16:06 -7.6 °F -8.9 °F 1020.5 in Calm     90% 0.0 in WeatherDisplay:10.37 W/m2 FEW
16:16 -7.5 °F -8.8 °F 1020.5 in Calm     90% 0.0 in WeatherDisplay:10.37 W/m2 FEW
16:21 -7.4 °F -8.8 °F 1020.5 in Calm     90% 0.0 in WeatherDisplay:10.37 W/m2 FEW
16:26 -7.4 °F -8.7 °F 1020.5 in Calm     91% 0.0 in WeatherDisplay:10.37 W/m2 FEW
16:31 -7.4 °F -8.6 °F 1020.5 in Calm     91% 0.0 in WeatherDisplay:10.37 W/m2 FEW
16:36 -7.3 °F -8.6 °F 1020.5 in Calm     91% 0.0 in WeatherDisplay:10.37 W/m2 FEW
16:41 -7.3 °F -8.6 °F 1020.5 in Calm     91% 0.0 in WeatherDisplay:10.37 W/m2 FEW
16:46 -7.3 °F -8.5 °F 1020.5 in Calm     91% 0.0 in WeatherDisplay:10.37 W/m2 FEW
16:51 -7.2 °F -8.4 °F 1020.5 in Calm     91% 0.0 in WeatherDisplay:10.37 W/m2 FEW
16:56 -7.2 °F -8.4 °F 1020.5 in Calm     91% 0.0 in WeatherDisplay:10.37 W/m2 FEW
17:01 -7.2 °F -8.4 °F 1020.5 in Calm     91% 0.0 in WeatherDisplay:10.37 W/m2 FEW
17:06 -7.1 °F -8.3 °F 1020.5 in Calm     91% 0.0 in WeatherDisplay:10.37 W/m2 FEW
17:11 -7.1 °F -8.3 °F 1020.5 in Calm     91% 0.0 in WeatherDisplay:10.37 W/m2 FEW
17:16 -7.1 °F -8.3 °F 1020.2 in Calm     91% 0.0 in WeatherDisplay:10.37 W/m2 FEW
17:21 -7.0 °F -8.2 °F 1020.2 in Calm     91% 0.0 in WeatherDisplay:10.37 W/m2 FEW
17:26 -6.9 °F -8.0 °F 1020.2 in Calm     92% 0.0 in WeatherDisplay:10.37 W/m2 FEW
17:31 -6.9 °F -8.0 °F 1020.2 in Calm     92% 0.0 in WeatherDisplay:10.37 W/m2 FEW
17:36 -7.0 °F -8.1 °F 1020.2 in Calm     92% 0.0 in WeatherDisplay:10.37 W/m2 FEW
17:41 -7.0 °F -8.1 °F 1020.2 in Calm     92% 0.0 in WeatherDisplay:10.37 W/m2 FEW
17:46 -7.0 °F -8.1 °F 1020.2 in Calm     92% 0.0 in WeatherDisplay:10.37 W/m2 FEW
17:51 -7.1 °F -8.1 °F 1020.5 in Calm     92% 0.0 in WeatherDisplay:10.37 W/m2 FEW
17:56 -7.0 °F -8.1 °F 1020.2 in Calm     92% 0.0 in WeatherDisplay:10.37 W/m2 FEW
18:01 -7.0 °F -8.1 °F 1020.5 in Calm     92% 0.0 in WeatherDisplay:10.37 W/m2 FEW
18:11 -7.0 °F -8.1 °F 1020.2 in Calm     92% 0.0 in WeatherDisplay:10.37 W/m2 FEW
18:16 -7.0 °F -8.1 °F 1020.2 in Calm     92% 0.0 in WeatherDisplay:10.37 W/m2 FEW
18:26 -7.1 °F -8.1 °F 1020.2 in Calm     92% 0.0 in WeatherDisplay:10.37 W/m2 FEW
18:31 -7.1 °F -8.2 °F 1020.2 in Calm     92% 0.0 in WeatherDisplay:10.37 W/m2 FEW
18:36 -7.2 °F -8.2 °F 1020.2 in Calm     92% 0.0 in WeatherDisplay:10.37 W/m2 FEW
18:41 -7.2 °F -8.3 °F 1020.2 in Calm     92% 0.0 in WeatherDisplay:10.37 W/m2 FEW
18:46 -7.3 °F -8.3 °F 1020.2 in Calm     92% 0.0 in WeatherDisplay:10.37 W/m2 FEW
19:01 -7.2 °F -8.3 °F 1019.9 in Calm     92% 0.0 in WeatherDisplay:10.37 W/m2 FEW
19:11 -7.1 °F -8.2 °F 1019.9 in Calm     92% 0.0 in WeatherDisplay:10.37 W/m2 FEW
19:16 -7.1 °F -8.1 °F 1019.9 in Calm     92% 0.0 in WeatherDisplay:10.37 W/m2 FEW
19:21 -6.9 °F -8.0 °F 1019.5 in Calm     92% 0.0 in WeatherDisplay:10.37 W/m2 FEW
19:26 -6.9 °F -7.9 °F 1019.5 in Calm     92% 0.0 in WeatherDisplay:10.37 W/m2 FEW
19:31 -6.8 °F -7.9 °F 1019.5 in Calm     92% 0.0 in WeatherDisplay:10.37 W/m2 FEW
19:36 -6.8 °F -7.8 °F 1019.5 in Calm     92% 0.0 in WeatherDisplay:10.37 W/m2 FEW
19:41 -6.7 °F -7.8 °F 1019.5 in Calm     92% 0.0 in WeatherDisplay:10.37 W/m2 FEW
19:46 -6.7 °F -7.6 °F 1019.5 in Calm     93% 0.0 in WeatherDisplay:10.37 W/m2 FEW
19:51 -6.6 °F -7.7 °F 1019.2 in Calm     92% 0.0 in WeatherDisplay:10.37 W/m2 FEW
19:56 -6.5 °F -7.6 °F 1019.2 in Calm     92% 0.0 in WeatherDisplay:10.37 W/m2 FEW
20:01 -6.4 °F -7.3 °F 1019.2 in Calm     93% 0.0 in WeatherDisplay:10.37 W/m2 FEW
20:06 -6.3 °F -7.3 °F 1019.2 in Calm     93% 0.0 in WeatherDisplay:10.37 W/m2 FEW
20:11 -6.3 °F -7.2 °F 1019.2 in Calm     93% 0.0 in WeatherDisplay:10.37 W/m2 FEW
20:16 -6.2 °F -7.1 °F 1019.2 in Calm     93% 0.0 in WeatherDisplay:10.37 W/m2 FEW
20:21 -6.1 °F -7.1 °F 1018.8 in Calm     93% 0.0 in WeatherDisplay:10.37 W/m2 FEW
20:26 -6.1 °F -7.0 °F 1018.8 in Calm     93% 0.0 in WeatherDisplay:10.37 W/m2 FEW
20:31 -6.0 °F -6.9 °F 1018.8 in Calm     93% 0.0 in WeatherDisplay:10.37 W/m2 FEW
20:36 -5.9 °F -6.8 °F 1018.5 in Calm     93% 0.0 in WeatherDisplay:10.37 W/m2 FEW
20:41 -5.8 °F -6.7 °F 1018.5 in Calm     93% 0.0 in WeatherDisplay:10.37 W/m2 FEW
20:46 -5.7 °F -6.7 °F 1018.5 in Calm     93% 0.3 in WeatherDisplay:10.37 W/m2 RA
20:51 -5.6 °F -6.6 °F 1018.2 in Calm     93% 0.3 in WeatherDisplay:10.37 W/m2 RA
20:56 -5.6 °F -6.5 °F 1018.2 in Calm     93% 0.3 in WeatherDisplay:10.37 W/m2 FEW
21:01 -5.5 °F -6.4 °F 1018.2 in Calm     93% 0.3 in WeatherDisplay:10.37 W/m2 FEW
21:06 -5.4 °F -6.4 °F 1018.2 in Calm     93% 0.3 in WeatherDisplay:10.37 W/m2 FEW
21:11 -5.4 °F -6.3 °F 1018.2 in Calm     93% 0.3 in WeatherDisplay:10.37 W/m2 FEW
21:16 -5.3 °F -6.2 °F 1018.2 in Calm   1.6 mph 93% 0.3 in WeatherDisplay:10.37 W/m2 FEW
21:21 -5.2 °F -6.1 °F 1018.2 in Calm     93% 0.3 in WeatherDisplay:10.37 W/m2 FEW
21:26 -5.0 °F -5.9 °F 1017.8 in Calm     93% 0.5 in WeatherDisplay:10.37 W/m2 RA
21:31 -4.9 °F -5.8 °F 1017.8 in Calm     93% 0.5 in WeatherDisplay:10.37 W/m2 RA
21:36 -4.8 °F -5.7 °F 1018.2 in Calm     93% 0.5 in WeatherDisplay:10.37 W/m2 FEW
21:39 -4.7 °F -5.6 °F 1017.8 in Calm     93% 0.5 in WeatherDisplay:10.37 W/m2 FEW
21:44 -4.6 °F -5.4 °F 1017.8 in Calm   3.7 mph 94% 0.5 in WeatherDisplay:10.37 W/m2 FEW
21:49 -4.3 °F -5.3 °F 1017.8 in Calm     93% 0.3 in WeatherDisplay:10.37 W/m2 FEW
21:59 -3.9 °F -4.8 °F 1017.8 in Calm   1.9 mph 93% 0.3 in WeatherDisplay:10.37 W/m2 FEW
22:04 -3.8 °F -4.7 °F 1017.8 in Calm     94% 0.3 in WeatherDisplay:10.37 W/m2 FEW
22:09 -3.8 °F -4.6 °F 1017.8 in NNE 1.1 mph 5.6 mph 94% 0.5 in WeatherDisplay:10.37 W/m2 RA
22:14 -3.6 °F -4.5 °F 1017.8 in NNE 0.5 mph 4.8 mph 93% 0.5 in WeatherDisplay:10.37 W/m2 RA
22:24 -3.2 °F -4.0 °F 1017.5 in NNE 0.3 mph 3.7 mph 94% 0.3 in WeatherDisplay:10.37 W/m2 FEW
22:29 -2.9 °F -3.9 °F 1017.5 in SSE 4.3 mph 5.6 mph 93% 0.3 in WeatherDisplay:10.37 W/m2 FEW
22:39 -2.2 °F -3.2 °F 1017.5 in SSE 2.9 mph 9.3 mph 93% 0.5 in WeatherDisplay:10.37 W/m2 RA
22:44 -1.9 °F -2.9 °F 1017.5 in SSE 2.9 mph 14.8 mph 93% 0.5 in WeatherDisplay:10.37 W/m2 FEW
22:49 -1.6 °F -2.6 °F 1017.5 in SSE 1.9 mph 7.4 mph 93% 0.5 in WeatherDisplay:10.37 W/m2 FEW
22:54 -1.4 °F -2.4 °F 1017.5 in Calm     93% 0.5 in WeatherDisplay:10.37 W/m2 FEW
22:59 -1.3 °F -2.3 °F 1017.5 in SSE 1.1 mph 1.9 mph 93% 0.5 in WeatherDisplay:10.37 W/m2 FEW
23:04 -1.2 °F -2.2 °F 1017.5 in WSW 0.8 mph 5.6 mph 93% 0.5 in WeatherDisplay:10.37 W/m2 FEW
23:19 -1.2 °F -2.2 °F 1017.5 in South 1.1 mph 7.4 mph 93% 0.3 in WeatherDisplay:10.37 W/m2 FEW
23:24 -1.1 °F -2.1 °F 1017.5 in Calm   5.6 mph 93% 0.3 in WeatherDisplay:10.37 W/m2 FEW
23:34 -1.1 °F -2.1 °F 1017.5 in Calm     93% 0.0 in WeatherDisplay:10.37 W/m2 FEW
23:39 -1.1 °F -2.1 °F 1017.5 in Calm   5.6 mph 93% 0.0 in WeatherDisplay:10.37 W/m2 FEW
23:44 -1.1 °F -2.1 °F 1017.2 in SSE 4.0 mph 16.7 mph 93% 0.0 in WeatherDisplay:10.37 W/m2 FEW
23:54 -1.1 °F -2.1 °F 1016.8 in South 4.2 mph 13.0 mph 93% 0.0 in WeatherDisplay:10.37 W/m2 FEW
Tuulensuunkaari, Veikkola, Suomi
Compliments of Weather Underground - 2.5 mb